Flag for Egypt Weather past 2 weeks in Al Jizah, Egypt

Now
64 °F

Fog.


Feels Like: 64 °F
Forecast: 58 / 85 °F
Wind: 10 mph from North

Location: Cairo Airport


UV Index: 7 (High)

Visibility: 2 mi


Pressure: 29.95 "Hg

Humidity: 88%

Dew point: 61 °F

Location of Al JizahLocation

Historic Weather in Al Jizah

°F

Al Jizah temperature yesterday

Maximum temperature yesterday: 81 °F (at 11:00 AM)
Minimum temperature yesterday: 64 °F (at 3:30 AM)
Average temperature yesterday: 72 °F

Past Weeks' High & Low Weather Summary

 TemperatureHumidityPressure
High95 °F (Apr 18, 2:30 PM)94% (Apr 17, 2:30 AM)30.07 "Hg (Apr 17, 2:30 AM)
Low55 °F (Apr 5, 5:30 AM)6% (Apr 6, 3:30 PM)29.74 "Hg (Apr 15, 3:00 AM)
Average72 °F48%29.94 "Hg
* Reported Apr 5 2:00 AM — Apr 20 2:00 AM, Al Jizah, Weather by CustomWeather, © 2014

Note: Actual official high and low records may vary slightly from our data, if they occured in-between our weather recording intervals... More about our weather records

Advertising

Historic Weather Conditions — Data for Previous 24 hours

 ConditionsComfort  
Time TempWeatherWind HumidityBarometerVisibility
2:00 AM
Apr 20
64 °FFog.10 mph88%29.95 "Hg2 mi
1:30 AM64 °FClear.9 mph83%29.92 "Hg4 mi
1:00 AM64 °FClear.9 mph83%29.92 "Hg4 mi
12:30 AM66 °FPassing clouds.9 mph83%29.95 "HgN/A
12:00 AM66 °FPassing clouds.9 mph83%29.95 "HgN/A
11:30 PM
Apr 19
66 °FPassing clouds.10 mph83%29.95 "HgN/A
11:00 PM66 °FPassing clouds.14 mph83%29.95 "HgN/A
10:30 PM66 °FPassing clouds.13 mph83%29.95 "HgN/A
10:00 PM66 °FPassing clouds.13 mph83%29.95 "HgN/A
9:30 PM66 °FPassing clouds.14 mph83%29.95 "HgN/A
9:00 PM66 °FPassing clouds.14 mph83%29.95 "HgN/A
8:30 PM66 °FPassing clouds.15 mph83%29.95 "HgN/A
8:00 PM68 °FPassing clouds.14 mph78%29.95 "HgN/A
7:30 PM70 °FPassing clouds.14 mph73%29.95 "HgN/A
7:00 PM70 °FPassing clouds.13 mph73%29.95 "Hg4 mi
6:30 PM72 °FPassing clouds.13 mph69%29.95 "Hg4 mi
6:00 PM72 °FOvercast.12 mph69%29.92 "Hg4 mi
5:30 PM73 °FOvercast.12 mph69%29.95 "Hg4 mi
5:00 PM79 °FOvercast.10 mph48%29.92 "Hg4 mi
4:30 PM79 °FOvercast.10 mph48%29.92 "Hg4 mi
4:00 PM79 °FOvercast.9 mph51%29.92 "HgN/A
3:30 PM81 °FOvercast.14 mph48%29.98 "HgN/A
3:00 PM81 °FOvercast.6 mph51%29.95 "HgN/A
2:30 PM79 °FOvercast.12 mph54%29.89 "HgN/A
2:00 PM79 °FOvercast.12 mph54%29.92 "HgN/A
1:30 PM77 °FOvercast.8 mph61%29.92 "HgN/A
1:00 PM77 °FOvercast.13 mph61%29.92 "HgN/A
12:30 PM79 °FPartly sunny.13 mph58%29.89 "HgN/A
12:00 PM81 °FPartly sunny.9 mph51%29.92 "Hg4 mi
11:30 AM81 °FPartly sunny.10 mph48%29.95 "Hg10 mi
11:00 AM81 °FSunny.9 mph45%29.92 "Hg10 mi
10:30 AM79 °FSunny.13 mph51%29.89 "Hg10 mi
10:00 AM77 °FPartly sunny.10 mph54%29.92 "HgN/A
9:30 AM75 °FScattered clouds.12 mph57%29.89 "HgN/A
9:00 AM72 °FScattered clouds.9 mph69%29.92 "HgN/A
8:30 AM70 °FBroken clouds.8 mph73%29.95 "Hg4 mi
8:00 AM75 °FBroken clouds.5 mph47%29.95 "Hg4 mi
7:30 AM75 °FClear.15 mph47%29.83 "Hg4 mi
7:00 AM70 °FClear.12 mph60%29.83 "Hg4 mi
6:30 AM70 °FClear.8 mph60%29.86 "Hg4 mi
6:00 AM68 °FFog.10 mph73%29.86 "Hg2 mi
5:30 AM66 °FFog.10 mph83%29.86 "Hg2 mi
5:00 AM64 °FFog.8 mph88%29.86 "Hg2 mi
4:30 AM64 °FFog.10 mph83%29.89 "Hg2 mi
4:00 AM64 °FFog.10 mph83%29.86 "Hg2 mi
3:30 AM64 °FFog.9 mph83%29.89 "Hg2 mi
3:00 AM66 °FFog.9 mph78%29.89 "Hg2 mi
2:30 AM66 °FFog.6 mph78%29.89 "Hg2 mi
2:00 AM66 °FFog.6 mph78%29.89 "Hg2 mi
Weather by CustomWeather, © 2014

See weather overview